Location: Cudham
(51.3000°N, 0.0667°E)
Time: 23:20:49
(UTC+00:00)

YAOGAN 11 - Pass Details

Date: 15 May 2026
Orbit: 599 x 646 km, 98.4° (Epoch: 6 June)

Event Time Altitude Azimuth Distance (km) Brightness Sun altitude
Rises 20:45:26 0° 17° (NNE) 2,945 7.9 -8.3°
Reaches altitude 10° 20:47:40 10° 20° (NNE) 2,038 7.1 -8.5°
Maximum altitude 20:52:04 63° 102° (ESE) 719 4.2 -9.0°
Drops below altitude 10° 20:56:30 10° 184° (S) 2,039 6.3 -9.4°
Enters shadow 20:58:39 - 188° (S) 2,917 7.1 -9.7°
